YUNHAI-2 06 (43915 NORAD) Tracking and Keplerian Element Data

This shows tracking and keplerian element data for the satellite.

Feedback or suggestion? Click here.




ElementValue
Catalog43915
NameYUNHAI-2 06
Epoch Orbit31724
Epoch Day34.93529246
Epoch Year2025
RAAN182.1038
Inclination50.0111
Eccentricity0.0006928
Argument of Perigee20.78
Mean Anonmoly339.3396
Mean Motion14.28661399
Decay Rate5.06E-06
L11 43915U 18112G 25034.93529246 .00000506 00000+0 26366-3 0 9995
L22 43915 50.0111 182.1038 0006928 20.7800 339.3396 14.28661399317249



Live tracking and technical data element details for YUNHAI-2 06 (NORAD 43915). YUNHAI-2 06 can be tracked NOW for your location showing map with azimuth and elevation plus other details from your city location.







IsCatalogInMostPopularTable: catalog: 43915, numindb: 479
Update: records affected: 1



GetName: 43915 YUNHAI-2 06

Hit Count: updated at: Sat, 24 May 2025 16:00:19 GMT